TimeHST,TemperatureF,Dew PointF,Humidity,Sea Level PressureIn,VisibilityMPH,Wind Direction,Wind SpeedMPH,Gust SpeedMPH,PrecipitationIn,Events,Conditions,WindDirDegrees,DateUTC
12:57 AM,73.4,66.9,80,29.93,10.0,SE,3.5,-,N/A,,Partly Cloudy,130,2013-01-14 10:57:00
1:57 AM,73.4,66.0,78,29.92,10.0,SE,4.6,-,N/A,,Clear,140,2013-01-14 11:57:00
2:57 AM,73.4,66.9,80,29.92,10.0,SSE,3.5,-,N/A,,Mostly Cloudy,150,2013-01-14 12:57:00
3:57 AM,73.4,66.0,78,29.90,10.0,SSE,3.5,-,N/A,,Mostly Cloudy,150,2013-01-14 13:57:00
4:57 AM,75.2,66.0,73,29.90,10.0,South,4.6,-,N/A,,Mostly Cloudy,170,2013-01-14 14:57:00
5:57 AM,75.2,66.0,73,29.91,10.0,South,6.9,-,N/A,,Overcast,180,2013-01-14 15:57:00
6:57 AM,75.2,66.0,73,29.91,10.0,South,5.8,-,0.00,,Overcast,170,2013-01-14 16:57:00
7:57 AM,75.2,66.0,73,29.93,10.0,SSW,6.9,-,0.00,Rain,Light Rain,200,2013-01-14 17:57:00
8:57 AM,75.2,66.9,75,29.94,10.0,South,8.1,-,0.00,,Overcast,180,2013-01-14 18:57:00
9:57 AM,75.2,66.9,75,29.94,10.0,South,5.8,-,0.01,Rain,Light Rain,180,2013-01-14 19:57:00
10:57 AM,74.1,68.0,81,29.92,10.0,South,8.1,-,0.07,Rain,Light Rain,180,2013-01-14 20:57:00
11:57 AM,76.5,68.0,75,29.91,5.0,SW,12.7,16.1,0.29,Rain,Rain,220,2013-01-14 21:57:00
12:19 PM,77.0,68.0,74,29.91,6.2,Calm,Calm,-,0.00,Rain,Light Rain,0,2013-01-14 22:19:00
12:57 PM,77.5,68.0,72,29.88,4.0,Variable,3.5,-,0.07,Rain,Heavy Rain,0,2013-01-14 22:57:00
1:07 PM,77.0,69.8,78,29.89,-9999.0,North,15.0,21.9,0.02,Rain,Light Rain,350,2013-01-14 23:07:00
1:13 PM,77.0,69.8,78,29.89,-9999.0,North,13.8,-,0.03,Rain,Rain,350,2013-01-14 23:13:00
1:57 PM,77.7,69.1,75,29.88,3.0,North,11.5,-,0.13,Rain,Rain,350,2013-01-14 23:57:00
2:57 PM,80.1,66.9,64,29.88,10.0,NW,8.1,-,0.02,,Overcast,320,2013-01-15 00:57:00
3:57 PM,74.7,66.0,74,29.89,10.0,North,12.7,-,N/A,,Mostly Cloudy,360,2013-01-15 01:57:00
4:57 PM,76.6,66.9,72,29.91,10.0,North,12.7,-,0.00,Rain,Light Rain,350,2013-01-15 02:57:00
5:22 PM,75.2,66.2,73,29.93,6.2,North,6.9,-,0.02,Rain,Light Rain,360,2013-01-15 03:22:00
5:32 PM,75.2,66.2,73,29.93,6.2,NNE,13.8,-,0.03,Rain,Light Rain,20,2013-01-15 03:32:00
5:40 PM,75.2,66.2,73,29.93,6.2,NNE,13.8,-,0.03,Rain,Light Rain,20,2013-01-15 03:40:00
5:57 PM,74.7,66.9,77,29.92,10.0,NNE,11.5,-,0.03,,Overcast,30,2013-01-15 03:57:00
6:14 PM,71.6,66.2,83,29.93,6.2,NNE,9.2,-,N/A,,Overcast,30,2013-01-15 04:14:00
6:41 PM,71.6,66.2,83,29.94,6.2,NE,9.2,-,0.00,Rain,Light Rain,50,2013-01-15 04:41:00
6:57 PM,72.1,66.0,81,29.93,10.0,NNE,10.4,-,0.02,Rain,Light Rain,20,2013-01-15 04:57:00
7:57 PM,72.1,66.0,81,29.93,10.0,Calm,Calm,-,0.00,,Overcast,0,2013-01-15 05:57:00
8:08 PM,-9999,-9999,N/A,29.94,6.2,Calm,Calm,-,N/A,,Overcast,0,2013-01-15 06:08:00
8:57 PM,73.0,66.9,81,29.93,10.0,Calm,Calm,-,0.05,Rain,Light Rain,0,2013-01-15 06:57:00
9:45 PM,71.6,66.2,83,29.95,6.0,Calm,Calm,-,0.03,Rain,Rain,0,2013-01-15 07:45:00
9:57 PM,70.9,66.0,85,29.94,6.0,Calm,Calm,-,0.04,Rain,Light Rain,0,2013-01-15 07:57:00
10:57 PM,70.7,66.9,88,29.93,10.0,Calm,Calm,-,0.03,Rain,Light Rain,0,2013-01-15 08:57:00
11:57 PM,70.7,68.0,91,29.92,10.0,Calm,Calm,-,0.02,Rain,Light Rain,0,2013-01-15 09:57:00